EW2633 Weather Reports


Display with metric or nautical units.
time (UTC)temp
F
wind
direction
speed
MPH
gust
MPH
rain 1hr
in
rain 24hr
in
rain mn
in
humidity
%
barometer
mb
20260503184005 61 228 1.0 8.0 0.00 0.00 0.00 36 1017.5
20260503183505 62 197 1.0 9.0 0.00 0.00 0.00 35 1017.5
20260503183006 62 194 2.0 9.0 0.00 0.00 0.00 36 1017.5
20260503182006 62 192 2.0 12.0 0.00 0.00 0.00 39 1017.7
20260503181005 62 182 3.0 13.0 0.00 0.00 0.00 37 1017.8
20260503180006 61 173 2.0 11.0 0.00 0.00 0.00 36 1017.9
20260503175505 61 170 3.0 11.0 0.00 0.00 0.00 35 1018.0
20260503175005 61 173 2.0 10.0 0.00 0.00 0.00 35 1018.0
20260503174506 61 164 1.0 9.0 0.00 0.00 0.00 40 1018.0
20260503174005 61 0 0.0 9.0 0.00 0.00 0.00 36 1018.0
20260503173505 61 0 0.0 1.0 0.00 0.00 0.00 38 1018.2
20260503172505 60 0 0.0 1.0 0.00 0.00 0.00 36 1018.4
20260503172005 60 0 0.0 1.0 0.00 0.00 0.00 38 1018.6
20260503171005 60 0 0.0 0.0 0.00 0.00 0.00 36 1018.8
20260503170505 60 0 0.0 0.0 0.00 0.00 0.00 38 1018.9
20260503151005 56 0 0.0 1.0 0.00 0.00 0.00 46 1020.3
20260503150505 56 0 0.0 0.0 0.00 0.00 0.00 51 1020.3
20260503131005 42 0 0.0 0.0 0.00 0.00 0.00 35 1020.5
20260503110504 31 0 0.0 0.0 0.00 0.00 0.00 46 1019.8
20260503090505 31 0 0.0 0.0 0.00 0.00 0.00 50 1019.2
20260503081505 31 0 0.0 0.0 0.00 0.00 0.00 60 1019.0
20260503081004 31 0 0.0 0.0 0.00 0.00 0.00 61 1019.0
20260503080505 31 0 0.0 0.0 0.00 0.00 0.00 61 1019.1
20260503072504 32 0 0.0 0.0 0.00 0.00 0.00 63 1018.8
20260503072004 32 0 0.0 0.0 0.00 0.00 0.00 64 1018.8
20260503071004 32 0 0.0 0.0 0.00 0.00 0.00 65 1018.9
20260503070504 32 0 0.0 0.0 0.00 0.00 0.00 65 1018.9
20260503055004 33 0 0.0 0.0 0.00 0.00 0.00 72 1019.2
20260503053503 34 0 0.0 0.0 0.00 0.00 0.00 73 1019.2
20260503053004 34 0 0.0 0.0 0.00 0.00 0.00 74 1019.1
20260503052504 34 0 0.0 0.0 0.00 0.00 0.00 74 1019.2
20260503051504 34 0 0.0 0.0 0.00 0.00 0.00 75 1019.2
20260503051004 34 0 0.0 0.0 0.00 0.00 0.00 75 1019.2
20260503050005 34 0 0.0 0.0 0.00 0.00 0.00 75 1019.2
20260503045504 34 0 0.0 0.0 0.00 0.00 0.00 76 1019.3
20260503045003 35 0 0.0 0.0 0.00 0.00 0.00 77 1019.3
20260503044504 35 0 0.0 0.0 0.00 0.00 0.00 77 1019.3
20260503044004 35 0 0.0 0.0 0.00 0.00 0.00 78 1019.2
20260503043504 35 0 0.0 0.0 0.00 0.00 0.00 79 1019.2
20260503043004 35 0 0.0 0.0 0.00 0.00 0.00 79 1019.2
20260503042504 35 0 0.0 0.0 0.00 0.00 0.00 80 1019.2
20260503041503 36 0 0.0 0.0 0.00 0.00 0.00 80 1019.2
20260503041003 36 0 0.0 0.0 0.00 0.00 0.00 80 1019.2
20260503040503 36 0 0.0 0.0 0.00 0.00 0.00 80 1019.3
20260503040005 36 0 0.0 0.0 0.00 0.00 0.00 81 1019.3
20260503035503 36 0 0.0 0.0 0.00 0.00 0.00 81 1019.4
20260503035004 36 0 0.0 0.0 0.00 0.00 0.00 81 1019.5
20260503034504 37 0 0.0 0.0 0.00 0.00 0.00 81 1019.4
20260503034003 37 0 0.0 0.0 0.00 0.00 0.00 81 1019.4
20260503032504 38 0 0.0 0.0 0.00 0.00 0.00 82 1019.3
20260503032004 38 0 0.0 0.0 0.00 0.00 0.00 81 1019.2
20260503031504 38 0 0.0 0.0 0.00 0.00 0.00 81 1019.2
20260503031004 38 0 0.0 0.0 0.00 0.00 0.00 81 1019.2
20260503030004 39 0 0.0 0.0 0.00 0.00 0.00 81 1019.2
20260503025503 39 0 0.0 0.0 0.00 0.00 0.00 80 1019.2
20260503025003 39 0 0.0 0.0 0.00 0.00 0.00 80 1019.2
20260503024503 40 0 0.0 0.0 0.00 0.00 0.00 80 1019.2
20260503023506 40 0 0.0 0.0 0.00 0.00 0.00 79 1019.0
20260503022506 41 0 0.0 0.0 0.00 0.00 0.00 78 1018.9
20260503022007 42 0 0.0 0.0 0.00 0.00 0.00 77 1018.8
20260503021507 42 0 0.0 0.0 0.00 0.00 0.00 76 1018.8
20260503021006 42 0 0.0 0.0 0.00 0.00 0.00 75 1018.8
20260503020506 42 0 0.0 0.0 0.00 0.00 0.00 74 1018.7
20260503015506 43 0 0.0 0.0 0.00 0.00 0.00 71 1018.6
20260503015006 43 0 0.0 0.0 0.00 0.00 0.00 68 1018.5
20260503014507 44 0 0.0 0.0 0.00 0.00 0.00 68 1018.5
20260503014006 44 0 0.0 0.0 0.00 0.00 0.00 68 1018.4
20260503013506 44 0 0.0 0.0 0.00 0.00 0.00 66 1018.2
20260503013006 44 0 0.0 0.0 0.00 0.00 0.00 66 1018.2
20260503012506 45 0 0.0 0.0 0.00 0.00 0.00 65 1018.2
20260503011006 46 0 0.0 0.0 0.00 0.00 0.00 64 1018.0
20260503010506 46 0 0.0 0.0 0.00 0.00 0.00 63 1017.9
20260503010006 46 0 0.0 0.0 0.00 0.00 0.00 63 1017.9
20260503005506 47 0 0.0 0.0 0.00 0.00 0.00 63 1017.9
20260503005006 47 0 0.0 0.0 0.00 0.00 0.00 60 1017.8
20260503004006 48 0 0.0 0.0 0.00 0.00 0.00 58 1017.7
20260503003007 49 0 0.0 0.0 0.00 0.00 0.00 57 1017.6
20260503002006 50 0 0.0 0.0 0.00 0.00 0.00 56 1017.5
20260503001506 51 0 0.0 0.0 0.00 0.00 0.00 56 1017.4
20260503001006 51 0 0.0 0.0 0.00 0.00 0.00 51 1017.4
20260503000506 52 0 0.0 0.0 0.00 0.00 0.00 53 1017.4
20260502235506 52 0 0.0 0.0 0.00 0.00 0.00 48 1017.2
20260502234506 53 0 0.0 0.0 0.00 0.00 0.00 44 1017.1
20260502233506 54 0 0.0 0.0 0.00 0.00 0.00 43 1017.1
20260502233006 54 0 0.0 0.0 0.00 0.00 0.00 44 1017.1
20260502232506 54 0 0.0 0.0 0.00 0.00 0.00 44 1017.1
20260502232006 54 0 0.0 0.0 0.00 0.00 0.00 42 1017.1
20260502231506 54 0 0.0 0.0 0.00 0.00 0.00 43 1017.1
20260502231005 54 0 0.0 0.0 0.00 0.00 0.00 44 1017.1
20260502230006 54 0 0.0 0.0 0.00 0.00 0.00 42 1017.0
20260502225506 54 0 0.0 0.0 0.00 0.00 0.00 43 1017.0
20260502225006 54 0 0.0 0.0 0.00 0.00 0.00 43 1016.9
20260502224506 54 0 0.0 0.0 0.00 0.00 0.00 44 1016.8
20260502223505 54 0 0.0 0.0 0.00 0.00 0.00 41 1016.9
20260502222505 55 0 0.0 0.0 0.00 0.00 0.00 43 1017.0
20260502222006 55 0 0.0 0.0 0.00 0.00 0.00 46 1016.9
20260502221506 55 0 0.0 0.0 0.00 0.00 0.00 41 1016.9
20260502221006 54 0 0.0 0.0 0.00 0.00 0.00 43 1016.9
20260502220506 54 0 0.0 0.0 0.00 0.00 0.00 43 1016.8
20260502220006 54 0 0.0 0.0 0.00 0.00 0.00 40 1016.8
20260502215506 55 0 0.0 0.0 0.00 0.00 0.00 42 1016.8
20260502215005 56 0 0.0 0.0 0.00 0.00 0.00 41 1016.8
20260502214506 57 0 0.0 0.0 0.00 0.00 0.00 39 1016.8
20260502214005 57 0 0.0 0.0 0.00 0.00 0.00 41 1016.7
20260502213506 56 0 0.0 0.0 0.00 0.00 0.00 42 1016.7
20260502213006 55 0 0.0 1.0 0.00 0.00 0.00 43 1016.7
20260502212006 54 0 0.0 0.0 0.00 0.00 0.00 43 1016.7
20260502211006 54 0 0.0 1.0 0.00 0.00 0.00 42 1016.7
20260502210506 54 0 0.0 1.0 0.00 0.00 0.00 43 1016.7
20260502210006 54 0 0.0 0.0 0.00 0.00 0.00 43 1016.7
20260502205505 54 0 0.0 0.0 0.00 0.00 0.00 46 1016.7
20260502205005 54 0 0.0 0.0 0.00 0.00 0.00 44 1016.7
20260502204506 55 0 0.0 0.0 0.00 0.00 0.00 41 1016.7
20260502204005 55 0 0.0 0.0 0.00 0.00 0.00 45 1016.8
20260502203506 55 0 0.0 0.0 0.00 0.00 0.00 48 1016.7
20260502203006 55 0 0.0 0.0 0.00 0.00 0.00 44 1016.7
20260502202506 55 0 0.0 0.0 0.00 0.00 0.00 42 1016.7
20260502201506 56 0 0.0 0.0 0.00 0.00 0.00 44 1016.9
20260502200505 56 0 0.0 0.0 0.00 0.00 0.00 42 1016.9
20260502200006 55 0 0.0 0.0 0.00 0.00 0.00 44 1017.0
20260502195505 56 0 0.0 0.0 0.00 0.00 0.00 40 1017.1
20260502195006 56 0 0.0 0.0 0.00 0.00 0.00 44 1017.0
20260502194506 56 0 0.0 0.0 0.00 0.00 0.00 43 1017.0
20260502194006 55 0 0.0 4.0 0.00 0.00 0.00 44 1017.0
20260502193505 56 0 0.0 4.0 0.00 0.00 0.00 46 1017.0
20260502193006 55 0 0.0 4.0 0.00 0.00 0.00 44 1017.1
20260502192505 55 0 0.0 2.0 0.00 0.00 0.00 46 1017.2
20260502191505 56 0 0.0 3.0 0.00 0.00 0.00 47 1017.3
20260502191005 56 0 0.0 5.0 0.00 0.00 0.00 44 1017.1
20260502190506 55 0 0.0 5.0 0.00 0.00 0.00 44 1017.3
20260502190006 55 0 0.0 3.0 0.00 0.00 0.00 43 1017.3
20260502185506 55 0 0.0 1.0 0.00 0.00 0.00 47 1017.4